Retour au catalogue

DELTA 1 DEB

ActifSSO
NORAD 7053·DEBRIS·🇺🇸 United States

Lancé Nov 6, 1973 depuis Vandenberg Space Force Base

Loading…

Prochains Passages (prochaines 24 heures)

TLE

FraisSource: Space-Track

Époque: Sep 14, 2026, 03:39 UTC

1 07053U 73086AV  26257.15232770 -.00000047  00000-0 -22619-4 0  9995
2 07053 101.7413 330.5655 0047559 134.4449 339.2273 12.48626154405344

Suivez DELTA 1 DEB en temps réel avec AllMySat

Download on the App Store